Location: Unspecified
(0.0000°N, 0.0000°E)
Time: 23:45:26
(UTC+00:00)

S-56A Canister/Altair - All Passes

Search period start: 18 September 2014 00:00
Search period end: 28 September 2014 00:00
Orbit: 633 x 2503 km, 38.9° (Epoch: 17 September)

Date Brightness Start Highest point End Pass type
(mag) Time Alt. Az. Time Alt. Az. Time Alt. Az.
18 Sep - 01:56:22 10° SSW 02:02:04 24° SSE 02:06:26 10° E night (unlit)
18 Sep - 04:00:58 10° WSW 04:06:15 40° NW 04:10:30 10° NNE visible
18 Sep - 12:30:10 10° N 12:36:26 18° NE 12:44:03 10° E daylight
18 Sep - 14:30:55 10° NW 14:42:03 69° NE 14:56:52 10° SE daylight
18 Sep - 16:36:41 10° WNW 16:49:00 44° SW 17:03:05 10° SSE daylight
18 Sep - 18:51:08 10° WSW 18:58:04 14° SSW 19:04:54 10° S visible
19 Sep - 01:23:55 10° SSW 01:29:40 22° SSE 01:34:06 10° E night (unlit)
19 Sep - 03:28:13 10° WSW 03:34:14 54° NW 03:38:47 10° NE visible
19 Sep - 11:59:21 10° NNE 12:03:46 14° NE 12:08:53 10° ENE daylight
19 Sep - 13:58:48 10° NW 14:09:11 61° NE 14:23:25 10° ESE daylight
19 Sep - 16:03:48 10° WNW 16:15:49 49° SW 16:30:15 10° SSE daylight
19 Sep - 18:16:26 10° WSW 18:24:40 17° SSW 18:32:59 10° S visible
20 Sep - 00:51:25 10° SSW 00:57:11 20° SSE 01:01:41 10° ESE night (unlit)
20 Sep - 02:55:27 10° SW 03:02:11 72° NW 03:07:00 10° NE visible
20 Sep - 13:26:47 10° NNW 13:36:25 52° NE 13:49:51 10° ESE daylight
20 Sep - 15:31:05 10° WNW 15:42:41 55° SW 15:57:20 10° SE daylight
20 Sep - 17:42:11 10° WSW 17:51:17 19° SSW 18:00:45 10° S daylight
21 Sep - 00:18:51 10° SSW 00:24:38 18° SSE 00:29:11 10° ESE night (unlit)
21 Sep - 02:22:40 10° SW 02:30:05 90° NW 02:35:10 10° NE night (unlit)
21 Sep - 12:54:54 10° NNW 13:03:45 44° NE 13:16:10 10° ESE daylight
21 Sep - 14:58:31 10° WNW 15:09:37 61° SW 15:24:18 10° SE daylight
21 Sep - 17:08:18 10° WSW 17:17:56 22° SSW 17:28:19 10° SSE daylight
21 Sep - 23:46:15 10° S 23:51:58 17° SSE 23:56:35 10° ESE night (unlit)
22 Sep - 01:49:51 10° SW 01:57:54 74° SE 02:03:17 10° NE night (unlit)
22 Sep - 03:59:18 10° WNW 04:01:19 12° NW 04:03:11 10° NNW visible
22 Sep - 12:23:09 10° NNW 12:31:10 36° NE 12:42:21 10° ESE daylight
22 Sep - 14:26:05 10° WNW 14:36:37 69° SW 14:51:11 10° SE daylight
22 Sep - 16:34:44 10° W 16:44:37 24° SSW 16:55:44 10° SSE daylight
22 Sep - 23:13:37 10° S 23:19:13 16° SSE 23:23:50 10° ESE night (unlit)
23 Sep - 01:17:00 10° SW 01:25:38 62° SE 01:31:20 10° ENE night (unlit)
23 Sep - 03:25:18 10° W 03:29:13 17° NW 03:32:31 10° N visible
23 Sep - 11:51:32 10° NNW 11:58:40 30° NE 12:08:25 10° E daylight
23 Sep - 13:53:47 10° NW 14:03:43 77° SW 14:18:00 10° SE daylight
23 Sep - 16:01:25 10° W 16:11:21 27° SSW 16:23:01 10° SSE daylight
23 Sep - 22:40:57 10° S 22:46:22 15° SSE 22:50:56 10° SE visible
24 Sep - 00:44:07 10° SW 00:53:17 53° SE 00:59:19 10° ENE night (unlit)
24 Sep - 02:51:46 10° W 02:57:08 23° NW 03:01:19 10° N night (unlit)
24 Sep - 11:20:06 10° N 11:26:14 23° NE 11:34:20 10° E daylight
24 Sep - 13:21:37 10° NW 13:30:55 86° SW 13:44:44 10° SE daylight
24 Sep - 15:28:20 10° W 15:38:09 30° SSW 15:50:12 10° SSE daylight
24 Sep - 22:08:18 10° S 22:13:25 14° SSE 22:17:51 10° SE visible
25 Sep - 00:11:12 10° SW 00:20:49 46° SE 00:27:14 10° ENE night (unlit)
25 Sep - 02:18:23 10° WSW 02:25:03 31° NW 02:29:55 10° NNE night (unlit)
25 Sep - 10:48:55 10° N 10:53:51 18° NE 11:00:01 10° E daylight
25 Sep - 12:49:32 10° NW 12:58:14 84° NE 13:11:25 10° SE daylight
25 Sep - 14:55:26 10° W 15:05:02 33° SSW 15:17:19 10° SSE daylight
25 Sep - 17:11:42 10° SSW 17:15:00 11° SSW 17:18:22 10° S daylight
25 Sep - 21:35:40 10° S 21:40:22 13° SSE 21:44:32 10° SE visible
25 Sep - 23:38:15 10° SSW 23:48:17 41° SE 23:55:04 10° ENE night (unlit)
26 Sep - 01:45:03 10° WSW 01:52:55 41° NW 01:58:22 10° NNE night (unlit)
26 Sep - 10:18:17 10° NNE 10:21:30 13° NE 10:25:12 10° ENE daylight
26 Sep - 12:17:34 10° NW 12:25:39 73° NE 12:38:02 10° SE daylight
26 Sep - 14:22:43 10° W 14:31:59 36° SW 14:44:21 10° SSE daylight
26 Sep - 16:36:42 10° SW 16:41:30 12° SSW 16:46:33 10° S daylight
26 Sep - 21:03:08 10° S 21:07:12 12° SSE 21:10:55 10° SE visible
26 Sep - 23:05:17 10° SSW 23:15:38 37° SSE 23:22:48 10° E visible
27 Sep - 01:11:45 10° WSW 01:20:45 52° NW 01:26:43 10° NNE night (unlit)
27 Sep - 11:45:41 10° NW 11:53:10 61° NE 12:04:37 10° ESE daylight
27 Sep - 13:50:09 10° W 13:59:01 40° SW 14:11:20 10° SSE daylight
27 Sep - 16:02:25 10° SW 16:08:04 14° SSW 16:14:13 10° S daylight
27 Sep - 20:30:50 10° S 20:33:56 11° SSE 20:36:51 10° SSE visible
27 Sep - 22:32:18 10° SSW 22:42:53 33° SSE 22:50:25 10° E visible
